Location: Brusselsch Zeekanaal
(50.8667°N, 4.3667°E)
Time: 12:25:58
(UTC+00:00)

SL-24 R/B - RUBIN 2 - Pass Details

Date: 08 November 2025
Orbit: 599 x 987 km, 64.6° (Epoch: 10 December)

Event Time Altitude Azimuth Distance (km) Brightness Sun altitude
Exits shadow 04:39:27 42° 263° (W) 1,063 4.2 -20.2°
Maximum altitude 04:40:54 58° 317° (NW) 860 4.0 -19.9°
Drops below altitude 10° 04:45:41 10° 37° (NE) 2,133 6.7 -19.2°
Sets 04:47:57 0° 41° (NE) 3,001 7.6 -18.8°
